Weather History for K3R7 - February, 2013

Change the Weather History Date:

Monday, February 11, 2013

  Actual Average (KLCH) Record (KLCH)
Temperature  
Mean Temperature 57 °F 54 °F  
Max Temperature 64 °F 64 °F 79 °F (1967)
Min Temperature 50 °F 45 °F 22 °F (1981)
Degree Days  
Heating Degree Days 8 11  
Month to date heating degree days 131  
Since 1 July heating degree days 1122  
Cooling Degree Days 0 0  
Month to date cooling degree days 0  
Year to date cooling degree days 10  
Growing Degree Days 7 (Base 50)    
Moisture  
Dew Point 54 °F    
Average Humidity 95    
Maximum Humidity 99    
Minimum Humidity 87    
Precipitation  
Precipitation 2.16 in 0.13 in 3.21 in (2004)
Month to date precipitation 1.42  
Year to date precipitation 6.65  
Snow  
Snow 0.00 in 0.10 in T in (1981)
Month to date snowfall 0.1  
Since 1 July snowfall 0.1  
Snow Depth -    
Sea Level Pressure  
Sea Level Pressure 30.03 in    
Wind  
Wind Speed 10 mph (NE)    
Max Wind Speed 24 mph    
Max Gust Speed 31 mph    
Visibility 9 miles    
Events Rain , Thunderstorm    
T = Trace of Precipitation, MM = Missing Value Source: NWS Daily Summary

Daily Weather History Graph

Daily Weather History Graph

Search for Another Location

Airport or City:

Trip Planner

Search our weather history database for the weather conditions in past years. The results will help you decide how hot, cold, wet, or windy it might be!

Date:

Astronomy

Feb. 11, 2013 Rise Set
Actual Time 6:54 AM CST 5:56 PM CST
Civil Twilight 6:29 AM CST 6:20 PM CST
Nautical Twilight 6:01 AM CST 6:49 PM CST
Astronomical Twilight 5:33 AM CST 7:17 PM CST
Moon 7:29 AM CST (2/11) 7:40 PM CST (2/11)
Length of Visible Light 11h 51m
Length of Day
11h 02m
Waxing Crescent, 3% of the Moon is Illuminated
Feb 11
Waxing Crescent
Feb 17
First Quarter
Feb 25
Full
Mar 4
Last Quarter
Mar 11
New

Hourly Weather History & Observations

Time (CST) Temp. Dew Point Humidity Pressure Visibility Wind Dir Wind Speed Gust Speed Precip Events Conditions
12:15 AM 64.0 °F 61.5 °F 91% 29.96 in 10.0 mi East 5.8 mph - N/A   Overcast
12:35 AM 64.0 °F 61.5 °F 91% 29.96 in 10.0 mi ESE 3.5 mph - N/A   Overcast
12:55 AM 64.0 °F 62.1 °F 93% 29.97 in 10.0 mi East 3.5 mph - N/A   Overcast
1:15 AM 64.4 °F 62.2 °F 93% 29.97 in 10.0 mi North 4.6 mph - N/A Rain Rain
1:35 AM 63.9 °F 61.7 °F 93% 29.97 in 10.0 mi East 4.6 mph - N/A Rain Light Rain
1:55 AM 63.7 °F 62.1 °F 94% 29.97 in 10.0 mi Calm Calm - N/A   Overcast
2:15 AM 63.7 °F 62.1 °F 94% 29.97 in 10.0 mi Calm Calm - N/A   Overcast
2:35 AM 63.5 °F 61.9 °F 94% 29.97 in 10.0 mi Calm Calm - N/A   Overcast
2:55 AM 63.5 °F 62.4 °F 96% 29.97 in 10.0 mi North 4.6 mph - N/A   Overcast
3:15 AM 63.0 °F 61.9 °F 96% 29.98 in 10.0 mi North 10.4 mph - N/A Rain Light Rain
3:35 AM 61.9 °F 61.0 °F 97% 29.98 in 5.0 mi North 10.4 mph - 0.23 in Rain Heavy Rain
3:55 AM 61.2 °F 60.3 °F 97% 29.99 in 5.0 mi NNE 11.5 mph 23.0 mph 0.38 in Rain Rain
4:15 AM 59.4 °F 56.7 °F 91% 30.00 in 7.0 mi North 11.5 mph 24.2 mph 0.01 in Rain , Thunderstorm Rain
4:35 AM 58.5 °F 55.9 °F 91% 29.99 in 7.0 mi NNE 15.0 mph 23.0 mph 0.04 in Rain Light Rain
4:55 AM 57.2 °F 54.0 °F 89% 30.01 in 7.0 mi NE 13.8 mph 24.2 mph 0.08 in Rain Heavy Rain
5:15 AM 56.3 °F 53.8 °F 91% 30.01 in 10.0 mi NNE 15.0 mph 19.6 mph N/A   Overcast
5:55 AM 54.7 °F 52.2 °F 91% 30.05 in 10.0 mi NNE 19.6 mph 27.6 mph 0.07 in   Overcast
6:15 AM 53.6 °F 50.9 °F 91% 30.07 in 7.0 mi NNE 16.1 mph - 0.03 in Rain Light Rain
6:35 AM 52.7 °F 48.9 °F 87% 30.06 in 10.0 mi NE 18.4 mph 25.3 mph 0.04 in Rain Light Rain
6:55 AM 52.7 °F 48.9 °F 87% 30.06 in 10.0 mi NE 17.3 mph 25.3 mph 0.04 in   Overcast
7:15 AM 53.1 °F 50.2 °F 90% 30.07 in 7.0 mi NE 12.7 mph 16.1 mph 0.03 in Rain , Thunderstorm Heavy Thunderstorms and Rain
7:35 AM 52.7 °F 51.6 °F 96% 30.08 in 5.0 mi NE 21.9 mph 25.3 mph 0.22 in Rain , Thunderstorm Rain
7:55 AM 51.8 °F 50.7 °F 96% 30.07 in 7.0 mi NE 20.7 mph 28.8 mph 0.30 in Rain Light Rain
8:15 AM 51.1 °F 50.0 °F 96% 30.11 in 7.0 mi NE 12.7 mph 24.2 mph 0.06 in Rain , Thunderstorm Rain
8:35 AM 50.7 °F 49.6 °F 96% 30.08 in 10.0 mi NE 24.2 mph 31.1 mph 0.11 in Rain , Thunderstorm Light Thunderstorms and Rain
8:55 AM 50.9 °F 49.5 °F 95% 30.14 in 2.5 mi NNE 12.7 mph 21.9 mph 0.24 in Rain , Thunderstorm Heavy Thunderstorms and Rain
9:15 AM 51.1 °F 50.4 °F 97% 30.13 in 10.0 mi NNE 12.7 mph - 0.03 in Rain Light Rain
9:35 AM 51.6 °F 51.1 °F 98% 30.12 in 10.0 mi NE 12.7 mph 17.3 mph 0.04 in Rain Rain
9:55 AM 51.8 °F 51.3 °F 98% 30.12 in 10.0 mi ENE 10.4 mph - 0.04 in   Light Drizzle
10:15 AM 52.3 °F 51.8 °F 98% 30.10 in 7.0 mi ENE 16.1 mph 25.3 mph N/A Rain Light Rain
10:35 AM 52.7 °F 51.8 °F 97% 30.12 in 7.0 mi NE 12.7 mph - 0.03 in Rain Light Rain
10:55 AM 53.1 °F 52.2 °F 97% 30.11 in 10.0 mi ENE 12.7 mph 24.2 mph 0.03 in   Light Drizzle
11:15 AM 53.6 °F 52.7 °F 97% 30.07 in 7.0 mi East 20.7 mph 25.3 mph N/A   Light Drizzle
11:35 AM 54.0 °F 52.9 °F 96% 30.05 in 10.0 mi East 21.9 mph 28.8 mph N/A   Overcast
11:55 AM 54.1 °F 53.1 °F 96% 30.05 in 10.0 mi East 16.1 mph 21.9 mph N/A Rain Light Rain
12:15 PM 54.5 °F 53.1 °F 95% 30.04 in 10.0 mi East 16.1 mph - N/A   Overcast
12:35 PM 54.7 °F 53.2 °F 95% 30.04 in 10.0 mi ENE 16.1 mph 19.6 mph N/A   Overcast
12:55 PM 54.9 °F 53.4 °F 95% 30.05 in 10.0 mi NE 8.1 mph 20.7 mph N/A   Overcast
1:15 PM 54.5 °F 53.6 °F 97% 30.04 in 10.0 mi NE 9.2 mph - N/A Rain Light Rain
1:35 PM 54.3 °F 53.6 °F 97% 30.03 in 5.0 mi NE 9.2 mph - 0.04 in Rain Light Rain
1:55 PM 54.1 °F 53.6 °F 98% 30.02 in 3.0 mi ENE 11.5 mph 16.1 mph 0.18 in Rain Rain
2:15 PM 54.3 °F 53.6 °F 97% 30.03 in 10.0 mi ENE 9.2 mph - N/A Thunderstorm Overcast
2:35 PM 54.1 °F 53.6 °F 98% 30.04 in 4.0 mi NNE 10.4 mph - 0.30 in Rain Rain
2:55 PM 54.0 °F 53.6 °F 99% 30.05 in 5.0 mi North 6.9 mph - 0.42 in Rain Light Rain
3:15 PM 54.1 °F 53.8 °F 99% 30.02 in 7.0 mi ENE 11.5 mph 16.1 mph 0.02 in Rain Rain
3:35 PM 54.5 °F 53.8 °F 97% 30.02 in 10.0 mi NE 10.4 mph 18.4 mph 0.02 in   Overcast
3:55 PM 54.5 °F 53.6 °F 97% 30.01 in 10.0 mi NE 9.2 mph 12.7 mph 0.03 in Rain Rain
4:55 PM 54.1 °F 53.6 °F 98% 30.02 in 10.0 mi NE 10.4 mph - 0.02 in   Light Drizzle
5:15 PM 54.0 °F 53.2 °F 97% 30.02 in 10.0 mi NE 10.4 mph - 0.01 in Rain Light Rain
5:35 PM 54.0 °F 53.2 °F 97% 30.02 in 10.0 mi NE 13.8 mph - 0.01 in   Light Drizzle
5:55 PM 53.8 °F 53.1 °F 97% 30.02 in 10.0 mi NE 12.7 mph - 0.02 in Rain Light Rain
6:15 PM 53.8 °F 53.1 °F 97% 30.01 in 10.0 mi NE 12.7 mph 18.4 mph 0.01 in Rain , Thunderstorm Light Thunderstorms and Rain
6:35 PM 53.6 °F 52.9 °F 97% 30.04 in 7.0 mi NE 10.4 mph - 0.13 in Rain Heavy Rain
6:55 PM 53.6 °F 52.9 °F 97% 30.03 in 10.0 mi NE 11.5 mph - 0.19 in Rain Rain
7:15 PM 53.6 °F 53.1 °F 98% 30.02 in 10.0 mi NE 15.0 mph - N/A Rain , Thunderstorm Light Thunderstorms and Rain
7:35 PM 53.6 °F 53.1 °F 98% 30.02 in 10.0 mi ENE 16.1 mph - 0.02 in Rain Light Rain
7:55 PM 53.8 °F 52.9 °F 97% 30.02 in 7.0 mi NE 15.0 mph - 0.04 in Rain Light Rain
8:15 PM 53.8 °F 53.1 °F 97% 30.03 in 7.0 mi NE 12.7 mph 17.3 mph 0.02 in Rain Rain
8:35 PM 53.8 °F 53.1 °F 97% 30.02 in 10.0 mi NE 16.1 mph - 0.04 in Rain Light Rain
8:55 PM 54.0 °F 53.2 °F 97% 30.03 in 10.0 mi NE 13.8 mph 19.6 mph 0.07 in Rain Light Rain
9:15 PM 54.0 °F 53.1 °F 97% 30.03 in 10.0 mi NNE 12.7 mph - 0.01 in Rain , Thunderstorm Rain
9:35 PM 54.0 °F 53.1 °F 97% 30.03 in 10.0 mi NNE 13.8 mph - 0.01 in   Light Drizzle
9:55 PM 54.0 °F 53.2 °F 97% 30.01 in 10.0 mi NNE 13.8 mph 20.7 mph 0.01 in Thunderstorm Overcast
10:15 PM 53.8 °F 52.9 °F 97% 30.02 in 10.0 mi NE 15.0 mph - N/A Thunderstorm Overcast
10:35 PM 53.8 °F 52.9 °F 97% 30.02 in 10.0 mi ENE 12.7 mph 18.4 mph N/A Thunderstorm Thunderstorm
10:55 PM 54.0 °F 53.1 °F 97% 30.02 in 10.0 mi ENE 13.8 mph 20.7 mph N/A   Overcast
11:15 PM 54.1 °F 53.1 °F 96% 30.02 in 10.0 mi ENE 13.8 mph - N/A   Overcast
11:35 PM 54.1 °F 53.1 °F 96% 30.02 in 10.0 mi NE 12.7 mph - N/A   Overcast
11:55 PM 54.1 °F 53.1 °F 96% 30.01 in 10.0 mi ENE 13.8 mph - N/A Rain Rain